Louisville Bowman, KY

9:50 PM EST on November 22, 2017 (GMT -0500)
Bowman

Weather History for KLOU - November, 2012

Change the Weather History Date:

Monday, November 12, 2012

  Actual Average Record
Temperature  
Mean Temperature 49 °F 49 °F  
Max Temperature 65 °F 58 °F 77 °F (1949)
Min Temperature 32 °F 40 °F 21 °F (1950)
Degree Days  
Heating Degree Days 16 16  
Month to date heating degree days 217 167  
Since 1 July heating degree days 534 443  
Cooling Degree Days 0 0  
Month to date cooling degree days 0 0  
Year to date cooling degree days 1851 1442  
Moisture  
Dew Point 42 °F    
Average Humidity 75    
Maximum Humidity 100    
Minimum Humidity 49    
Precipitation  
Precipitation 0.53 in 0.11 in 1.37 in (2003)
Month to date precipitation 0.80 1.40  
Year to date precipitation 38.46 39.32  
Sea Level Pressure  
Sea Level Pressure 30.19 in    
Wind  
Wind Speed 8 mph (West)    
Max Wind Speed 24 mph    
Max Gust Speed 31 mph    
Visibility 8 miles    
Events Rain    
T = Trace of Precipitation, MM = Missing Value Source: NWS Daily Summary

Daily Weather History Graph

Daily Weather History Graph

Search for Another Location

Airport or City:

Trip Planner

Search our weather history database for the weather conditions in past years. The results will help you decide how hot, cold, wet, or windy it might be!

Date:

Astronomy

Nov. 12, 2012 Rise Set
Actual Time 7:21 AM EST 5:32 PM EST
Civil Twilight 6:53 AM EST 6:00 PM EST
Nautical Twilight 6:21 AM EST 6:31 PM EST
Astronomical Twilight 5:50 AM EST 7:03 PM EST
Moon 5:46 AM EST (11/12) 4:36 PM EST (11/12)
Length of Visible Light 11h 07m
Length of Day
10h 11m
Waning Crescent, 2% of the Moon is Illuminated
Nov 12
Waning Crescent
Nov 13
New
Nov 20
First Quarter
Nov 28
Full
Dec 6
Last Quarter

Hourly Weather History & Observations

Time (EST) Temp. Windchill Dew Point Humidity Pressure Visibility Wind Dir Wind Speed Gust Speed Precip Events Conditions
12:53 AM 64.0 °F - 48.9 °F 58% 30.06 in 10.0 mi South 15.0 mph 23.0 mph N/A   Clear
1:53 AM 64.0 °F - 51.1 °F 63% 30.05 in 10.0 mi South 12.7 mph 24.2 mph 0.00 in Rain Light Rain
2:53 AM 61.0 °F - 53.1 °F 75% 30.04 in 10.0 mi South 12.7 mph - 0.05 in Rain Light Rain
3:53 AM 59.0 °F - 55.0 °F 87% 30.01 in 10.0 mi South 9.2 mph - 0.03 in Rain Light Rain
4:53 AM 59.0 °F - 55.0 °F 87% 30.03 in 5.0 mi South 4.6 mph - 0.03 in Rain Rain
5:44 AM 57.2 °F - 55.4 °F 94% 30.05 in 9.0 mi SSW 6.9 mph - 0.07 in Rain Light Rain
5:53 AM 57.9 °F - 55.9 °F 93% 30.04 in 6.0 mi SSW 6.9 mph 16.1 mph 0.08 in Rain Light Rain
6:21 AM 57.2 °F - 57.2 °F 100% 30.05 in 3.0 mi South 8.1 mph - 0.06 in Rain Rain
6:53 AM 57.9 °F - 57.0 °F 97% 30.04 in 7.0 mi South 9.2 mph 18.4 mph 0.13 in Rain Light Rain
7:07 AM 59.0 °F - 55.4 °F 88% 30.04 in 7.0 mi SSW 11.5 mph 19.6 mph 0.01 in Rain Light Rain
7:18 AM 59.0 °F - 55.4 °F 88% 30.04 in 9.0 mi SSW 16.1 mph 25.3 mph 0.02 in Rain Light Rain
7:25 AM 55.4 °F - 53.6 °F 94% 30.06 in 5.0 mi WNW 20.7 mph 31.1 mph 0.03 in Rain Rain
7:43 AM 53.6 °F - 51.8 °F 94% 30.06 in 10.0 mi West 5.8 mph - 0.03 in Rain Light Rain
7:53 AM 54.0 °F - 52.0 °F 93% 30.07 in 10.0 mi West 6.9 mph - 0.03 in   Overcast
8:12 AM 53.6 °F - 51.8 °F 94% 30.10 in 1.0 mi West 10.4 mph - 0.02 in Rain Light Rain
8:25 AM 53.6 °F - 51.8 °F 94% 30.11 in 5.0 mi SW 4.6 mph - 0.03 in Rain Light Rain
8:53 AM 53.1 °F - 51.1 °F 93% 30.12 in 5.0 mi West 9.2 mph - 0.04 in Rain Light Rain
9:13 AM 51.8 °F - 51.8 °F 100% 30.13 in 5.0 mi WNW 16.1 mph 21.9 mph 0.03 in Rain Light Rain
9:53 AM 48.0 °F - 46.9 °F 96% 30.16 in 10.0 mi NW 12.7 mph - 0.07 in Rain Light Rain
10:27 AM 42.8 °F 34.5 °F 39.2 °F 87% 30.19 in 10.0 mi WNW 18.4 mph 28.8 mph 0.01 in Rain Light Rain
10:48 AM 42.8 °F 34.0 °F 39.2 °F 87% 30.21 in 7.0 mi WNW 20.7 mph 25.3 mph 0.02 in Rain Light Rain
10:53 AM 42.1 °F 33.9 °F 39.0 °F 89% 30.21 in 6.0 mi WNW 17.3 mph 26.5 mph 0.02 in Rain Light Rain
11:35 AM 41.0 °F 33.5 °F 37.4 °F 87% 30.22 in 10.0 mi WNW 13.8 mph - 0.03 in Rain Light Rain
11:44 AM 41.0 °F 34.3 °F 37.4 °F 87% 30.22 in 10.0 mi WNW 11.5 mph - 0.03 in Rain Light Rain
11:53 AM 41.0 °F 34.7 °F 37.9 °F 89% 30.23 in 10.0 mi WNW 10.4 mph - 0.04 in Rain Light Rain
12:25 PM 42.8 °F 35.4 °F 39.2 °F 87% 30.23 in 10.0 mi West 15.0 mph 19.6 mph 0.01 in Rain Light Rain
12:53 PM 39.9 °F 33.4 °F 37.9 °F 93% 30.25 in 10.0 mi WNW 10.4 mph - 0.01 in   Overcast
1:44 PM 39.2 °F 32.5 °F 33.8 °F 81% 30.25 in 10.0 mi WNW 10.4 mph - N/A   Overcast
1:53 PM 39.9 °F 33.4 °F 33.1 °F 77% 30.25 in 10.0 mi WNW 10.4 mph - N/A   Overcast
2:24 PM 42.8 °F 35.4 °F 33.8 °F 70% 30.26 in 10.0 mi West 15.0 mph 18.4 mph N/A   Mostly Cloudy
2:53 PM 44.1 °F 38.1 °F 28.9 °F 55% 30.27 in 10.0 mi West 11.5 mph 21.9 mph N/A   Partly Cloudy
3:53 PM 44.1 °F 39.0 °F 27.0 °F 51% 30.31 in 10.0 mi WNW 9.2 mph - N/A   Clear
4:53 PM 43.0 °F 37.7 °F 25.0 °F 49% 30.33 in 10.0 mi WNW 9.2 mph - N/A   Clear
5:53 PM 39.9 °F 35.8 °F 25.0 °F 55% 30.34 in 10.0 mi West 5.8 mph - N/A   Clear
6:53 PM 37.9 °F 33.5 °F 25.0 °F 60% 30.36 in 10.0 mi West 5.8 mph - N/A   Clear
7:53 PM 39.0 °F 34.0 °F 24.1 °F 55% 30.40 in 10.0 mi West 6.9 mph - N/A   Clear
8:53 PM 37.0 °F - 25.0 °F 62% 30.42 in 10.0 mi Calm Calm - N/A   Clear
9:53 PM 35.1 °F - 27.0 °F 72% 30.44 in 10.0 mi Calm Calm - N/A   Clear
10:53 PM 33.1 °F - 28.0 °F 82% 30.45 in 10.0 mi Calm Calm - N/A   Clear
11:53 PM 32.0 °F - 28.0 °F 85% 30.46 in 10.0 mi Calm Calm - N/A   Clear